Simultaneous Nadir Overpasses (SNOs) Predictions

Prediction of SNOs between GOES-14 and AQUA Satellite Orbit:

Table of predicted SNOs for the next 14.0 days since TLE Epoch: 3/13/2021
Index Date Time (GOES-14) GOES-14 Lat,Lon AQUA Lat,Lon Distance(km) Time Diff (sec)
1 03/13/2021 20:30:02 -0.08,-104.30 -0.01,-103.94 40.22 80
2 03/15/2021 20:17:51 -0.08,-104.30 0.64,-100.99 377.22 80
3 03/16/2021 08:39:07 0.09,-104.42 0.45,-106.15 196.58 80
4 03/18/2021 08:29:36 0.09,-104.43 -0.21,-103.20 140.80 80
5 03/18/2021 20:50:59 -0.09,-104.34 -0.95,-108.38 459.08 80
6 03/20/2021 08:17:24 0.09,-104.44 -0.80,-100.24 478.06 80
7 03/20/2021 20:38:48 -0.09,-104.35 -0.30,-105.43 122.36 80
8 03/22/2021 20:23:56 -0.10,-104.35 0.31,-102.47 214.17 80
9 03/23/2021 08:45:11 0.10,-104.43 0.77,-107.63 363.15 80
10 03/25/2021 08:33:00 0.11,-104.44 0.16,-104.67 26.07 80
